[[{"header":{"parameterUnit":"m.s-1","parameterCategory":1,"la1":30.2991,"la2":30.254,"lo1":-89.0895,"lo2":-89.0444,"dy":0.0017,"dx":0.0017,"nx":28,"ny":28,"refTime":"2025-09-03T21:00:00:Z","depth":0,"parameterNumber":2,"parameterNumberName":"U-component_of_WINDS"},"data":[0,0,0,0,0,0,0,0,0,0,0,0,0,0,0,0,0,0,0,0,0,0,0,0,0,0,0,0,0,0,0,0,0,0,0,0,0,0,0,0,0,0,0,0,0,0,0,0,0,0,0,0,0,0,0,0,0,0,2.0044,2.0044,0,2.0101,2.0102,2.0102,2.0072,2.007,2.0069,2.0067,2.0124,2.0127,2.013,0,0,0,0,0,0,0,0,0,0,0,0,0,1.9904,1.9907,2.0044,2.0044,2.0045,2.0101,2.0102,2.0103,2.0072,2.007,2.0068,2.0066,2.0123,2.0126,2.013,0,0,0,0,0,0,0,0,0,0,0,0,0,1.9964,1.9908,2.0044,2.0037,2.0037,2.0101,2.0102,2.0103,2.0072,2.007,2.0068,2.0066,2.0122,2.0126,2.013,2.0204,0,0,2.0144,2.0146,0,0,0,0,0,0,0,0,1.996,1.9969,2.0037,2.0037,2.0037,2.0077,2.0073,2.0137,2.0073,2.0059,2.0067,2.0064,2.011,2.0115,2.0131,2.0207,2.0209,2.0144,2.0147,2.0149,2.015,0,0,0,0,0,0,0,1.9956,1.9966,2.0066,2.0038,2.0038,2.003,2.0035,2.0085,2.0097,2.006,2.0058,2.0065,2.011,2.0127,2.0132,2.021,2.0144,2.0148,2.0151,2.0153,2.0345,2.0348,0,0,0,0,0,0,1.9953,1.9963,2.0065,2.0068,1.9992,2.0034,2.0041,2.0067,2.0096,2.0098,2.0067,2.0063,2.012,2.0127,2.0134,2.0219,2.0149,2.0153,2.0156,2.0343,2.0346,2.0348,0,0,0,0,0,0,1.995,1.9962,2.0062,2.0015,2.0027,2.0039,2.0068,2.0069,2.0086,2.0101,2.0103,2.0083,2.0119,2.0128,2.0186,2.0221,2.0155,2.0159,2.034,2.0344,2.0347,2.0392,0,0,0,0,0,0,1.9946,1.9961,1.999,2.0016,2.003,2.0115,2.0071,2.0072,2.0094,2.009,2.0117,2.0119,2.0118,2.018,2.0191,2.0226,2.0162,2.0337,2.0342,2.0346,2.0388,2.0397,2.0405,0,0,0,0,0,1.9941,2.0001,1.9992,2.0005,2.0066,2.0117,2.0125,2.0123,2.0097,2.0125,2.0135,2.0118,2.0216,2.0186,2.0198,2.0235,2.0334,2.034,2.0346,2.0384,2.0395,2.0405,0,0,0,0,0,0,1.998,2.0005,1.9995,2.0065,2.0089,2.0112,2.0147,2.0135,2.0167,2.0162,2.0158,2.0164,2.0224,2.0236,2.0202,2.0306,2.0271,2.0279,2.0296,2.0307,2.0315,2.031,2.0166,0,0,0,0,0,1.9996,2.0036,2.0055,2.0115,2.0128,2.0136,2.0158,2.0154,2.0179,2.0188,2.0202,2.0226,2.0262,2.0285,2.0319,2.039,2.0393,2.0421,2.043,2.0437,2.0443,2.0478,2.0489,2.0367,2.0367,2.0366,0,0,2.0031,2.005,2.0075,2.0124,2.0142,2.0181,2.0145,2.0189,2.0217,2.0195,2.025,2.0261,2.0287,2.0351,2.038,2.0363,2.0478,2.0444,2.0449,2.0452,2.0485,2.0496,2.0507,2.037,2.037,2.0369,0,0,2.0114,2.0133,2.0184,2.0202,2.023,2.0235,2.0247,2.0271,2.0277,2.0333,2.0316,2.035,2.0413,2.0431,2.0448,2.0536,2.052,2.0547,2.0592,2.0626,2.0635,2.0644,2.0672,2.0683,2.0554,2.0554,2.0554,0,2.0153,2.0213,2.0211,2.0256,2.0276,2.0258,2.0308,2.0326,2.0364,2.0377,2.0358,2.0434,2.0451,2.0517,2.0538,2.0554,2.0566,2.0543,2.0634,2.0643,2.0651,2.0677,2.0688,2.0557,2.0557,2.0556,2.0556,0,2.0258,2.03,2.0337,2.0373,2.0399,2.0446,2.0449,2.0475,2.0469,2.0475,2.053,2.0549,2.0585,2.0601,2.0596,2.0666,2.0654,2.0635,2.0599,2.0665,2.069,2.0701,2.0561,2.056,2.0559,2.0558,0,0,2.0367,2.04,2.0414,2.0428,2.0457,2.0488,2.0534,2.0569,2.059,2.0616,2.0652,2.0705,2.0686,2.0706,2.0703,2.0733,2.0797,2.071,2.071,2.0723,2.0872,2.0884,2.0896,2.0788,2.079,2.0792,2.0868,0,2.0449,2.0529,2.0527,2.0601,2.0637,2.062,2.0659,2.0679,2.0686,2.0717,2.0724,2.076,2.0735,2.0746,2.0776,2.0783,2.0827,2.0778,2.0819,2.0821,2.0811,2.091,2.0924,2.0995,2.0879,2.088,2.0882,0,2.0556,2.0585,2.0662,2.0682,2.0698,2.0733,2.0763,2.0794,2.0817,2.0819,2.0841,2.0832,2.0876,2.084,2.0899,2.0866,2.0883,2.0889,2.0892,2.0894,2.0853,2.0911,2.1018,2.1028,2.0897,2.0896,2.0895,0,2.0624,2.0682,2.0734,2.0748,2.0774,2.0799,2.0811,2.0831,2.0852,2.0879,2.0891,2.0923,2.094,2.0964,2.0963,2.0938,2.1022,2.0987,2.1023,2.1023,2.1039,2.1038,2.1148,2.1055,2.1055,2.1055,2.1055,0,2.0714,2.0761,2.0765,2.0797,2.0848,2.0845,2.0895,2.0905,2.0923,2.0955,2.0942,2.0973,2.0971,2.1001,2.1002,2.1048,2.1057,2.1058,2.1057,2.1058,2.1057,2.1067,2.1061,2.1058,2.1057,2.1056,2.1056,0,2.0798,2.0802,2.0858,2.0878,2.0884,2.092,2.0936,2.0966,2.0971,2.1012,2.1021,2.1029,2.1063,2.1065,2.1106,2.1106,2.1162,2.1157,2.1154,2.1152,2.1186,2.1182,2.1304,2.1319,2.1219,2.122,2.1221,0,2.0854,2.0889,2.0912,2.0933,2.0946,2.098,2.1,2.0999,2.102,2.1047,2.1073,2.1107,2.1133,2.1189,2.1197,2.1227,2.1221,2.1262,2.1225,2.1224,2.1218,2.1215,2.1217,2.1268,2.1269,2.127,2.1271,0,2.0952,2.0952,2.0983,2.1013,2.1038,2.1062,2.1084,2.1101,2.1102,2.1127,2.1162,2.1182,2.1223,2.1255,2.1284,2.1295,2.1282,2.1282,2.1291,2.1291,2.1287,2.1287,2.117,2.1279,2.1278,2.1278,2.1277,2.1277,2.1022,2.1051,2.1071,2.1105,2.1121,2.1141,2.1169,2.1177,2.1207,2.1239,2.1237,2.1275,2.1294,2.1331,2.1344,2.1373,2.1359,2.1373,2.1376,2.1379,2.1381,2.1285,2.1379,2.1379,2.1378,2.1378,2.1378,0,2.1117,2.1129,2.1159,2.119,2.1216,2.1203,2.1226,2.1247,2.1281,2.1301,2.1326,2.1365,2.1396,2.1407,2.1436,2.1457,2.1451,2.1464,2.1461,2.1463,2.1394,2.1381,2.1468,2.1468,2.1468,2.1468,2.1468,2.1468,2.1169,2.1217,2.1219,2.1274,2.1285,2.1323,2.1337,2.1354,2.1369,2.1413,2.1439,2.1446,2.146,2.149,2.1517,2.1519,2.153,2.1544,2.1544,2.1478,2.1469,2.146,2.1448,2.1547,2.1547,2.161,2.1611,2.1611]},{"header":{"parameterUnit":"m.s-1","parameterCategory":1,"la1":30.2991,"la2":30.254,"lo1":-89.0895,"lo2":-89.0444,"dy":0.0017,"dx":0.0017,"nx":28,"ny":28,"refTime":"2025-09-03T21:00:00:Z","depth":0,"parameterNumber":3,"parameterNumberName":"V-component_of_WINDS"},"data":[0,0,0,0,0,0,0,0,0,0,0,0,0,0,0,0,0,0,0,0,0,0,0,0,0,0,0,0,0,0,0,0,0,0,0,0,0,0,0,0,0,0,0,0,0,0,0,0,0,0,0,0,0,0,0,0,0,0,-0.2879,-0.2879,0,-0.2844,-0.2844,-0.2843,-0.2836,-0.2836,-0.2836,-0.2836,-0.2797,-0.2795,-0.2794,0,0,0,0,0,0,0,0,0,0,0,0,0,-0.2937,-0.2936,-0.2879,-0.2879,-0.2878,-0.2844,-0.2844,-0.2843,-0.2835,-0.2836,-0.2836,-0.2836,-0.2797,-0.2796,-0.2794,0,0,0,0,0,0,0,0,0,0,0,0,0,-0.2908,-0.2936,-0.2879,-0.2871,-0.2869,-0.2844,-0.2844,-0.2843,-0.2835,-0.2836,-0.2836,-0.2837,-0.2798,-0.2796,-0.2794,-0.2774,0,0,-0.2788,-0.2787,0,0,0,0,0,0,0,0,-0.291,-0.2906,-0.2872,-0.2871,-0.287,-0.2845,-0.2849,-0.282,-0.2835,-0.2848,-0.2836,-0.2837,-0.2812,-0.2809,-0.2801,-0.2772,-0.277,-0.2788,-0.2786,-0.2786,-0.2785,0,0,0,0,0,0,0,-0.2912,-0.2907,-0.2865,-0.2872,-0.287,-0.2867,-0.2864,-0.2844,-0.2828,-0.2847,-0.2847,-0.2843,-0.2811,-0.2803,-0.28,-0.277,-0.2788,-0.2786,-0.2785,-0.2784,-0.2722,-0.2721,0,0,0,0,0,0,-0.2916,-0.2909,-0.2866,-0.2864,-0.2891,-0.2866,-0.2862,-0.2852,-0.2828,-0.2825,-0.2842,-0.2842,-0.2806,-0.2803,-0.2799,-0.2774,-0.2786,-0.2784,-0.2783,-0.2722,-0.2722,-0.2721,0,0,0,0,0,0,-0.2917,-0.2912,-0.2868,-0.2886,-0.2881,-0.2865,-0.2854,-0.2851,-0.2843,-0.2825,-0.2822,-0.2837,-0.2807,-0.2802,-0.278,-0.2772,-0.2783,-0.2781,-0.2723,-0.2722,-0.2721,-0.2723,0,0,0,0,0,0,-0.2919,-0.2912,-0.2905,-0.2886,-0.288,-0.2851,-0.2853,-0.285,-0.284,-0.284,-0.2819,-0.2816,-0.2807,-0.2783,-0.2778,-0.277,-0.278,-0.2723,-0.2722,-0.2722,-0.2724,-0.2723,-0.2722,0,0,0,0,0,-0.2921,-0.2906,-0.2905,-0.29,-0.2871,-0.285,-0.2846,-0.2837,-0.284,-0.2832,-0.282,-0.2817,-0.2774,-0.2781,-0.2775,-0.2766,-0.2724,-0.2723,-0.2722,-0.2724,-0.2723,-0.2722,0,0,0,0,0,0,-0.2923,-0.2904,-0.2902,-0.2881,-0.2868,-0.2849,-0.2839,-0.2836,-0.282,-0.282,-0.2808,-0.2803,-0.2783,-0.2772,-0.278,-0.2746,-0.2749,-0.2747,-0.2753,-0.2752,-0.2751,-0.2753,-0.2778,0,0,0,0,0,-0.2922,-0.2908,-0.2891,-0.2875,-0.2868,-0.2855,-0.2845,-0.284,-0.2824,-0.2818,-0.2805,-0.2789,-0.2772,-0.2761,-0.2745,-0.2723,-0.2718,-0.2714,-0.2713,-0.2712,-0.271,-0.2697,-0.2695,-0.2718,-0.2718,-0.2718,0,0,-0.2918,-0.2906,-0.2897,-0.2875,-0.2864,-0.2849,-0.285,-0.2834,-0.2822,-0.2815,-0.2795,-0.2784,-0.2766,-0.2744,-0.2734,-0.2735,-0.2703,-0.271,-0.271,-0.2708,-0.2696,-0.2694,-0.2692,-0.2717,-0.2717,-0.2717,0,0,-0.2903,-0.2893,-0.2878,-0.2867,-0.285,-0.2842,-0.2838,-0.282,-0.2813,-0.2793,-0.2787,-0.2773,-0.2744,-0.2732,-0.2722,-0.2703,-0.2699,-0.2698,-0.2692,-0.268,-0.2678,-0.2677,-0.267,-0.2667,-0.2696,-0.2696,-0.2696,0,-0.29,-0.2878,-0.287,-0.2855,-0.2845,-0.284,-0.2824,-0.2813,-0.2791,-0.2784,-0.2786,-0.2751,-0.2738,-0.2713,-0.2709,-0.2701,-0.2696,-0.27,-0.2679,-0.2678,-0.2676,-0.2669,-0.2667,-0.2696,-0.2696,-0.2696,-0.2696,0,-0.2875,-0.286,-0.285,-0.2831,-0.282,-0.2804,-0.2793,-0.2783,-0.2778,-0.2769,-0.2748,-0.2733,-0.2713,-0.2707,-0.2701,-0.2681,-0.2682,-0.2682,-0.2685,-0.2674,-0.2667,-0.2665,-0.2696,-0.2696,-0.2696,-0.2696,0,0,-0.286,-0.2838,-0.2834,-0.2825,-0.2807,-0.2795,-0.2779,-0.2761,-0.2752,-0.2738,-0.2723,-0.27,-0.27,-0.2688,-0.2681,-0.2671,-0.2657,-0.2672,-0.2671,-0.2669,-0.2633,-0.2633,-0.263,-0.2654,-0.2654,-0.2653,-0.2635,0,-0.2843,-0.2816,-0.2808,-0.2785,-0.2771,-0.2766,-0.2752,-0.2738,-0.273,-0.2716,-0.2705,-0.2689,-0.269,-0.2683,-0.2673,-0.2661,-0.2649,-0.2662,-0.264,-0.2639,-0.2644,-0.2627,-0.2627,-0.261,-0.2632,-0.2632,-0.2631,0,-0.2819,-0.2806,-0.2781,-0.2765,-0.2759,-0.2747,-0.273,-0.2717,-0.2701,-0.2696,-0.2684,-0.2678,-0.266,-0.2665,-0.264,-0.2649,-0.264,-0.2633,-0.2632,-0.2629,-0.2634,-0.2623,-0.2604,-0.2601,-0.2627,-0.2627,-0.2628,0,-0.281,-0.2786,-0.2768,-0.2761,-0.2742,-0.2733,-0.2725,-0.271,-0.27,-0.2685,-0.2678,-0.2661,-0.2651,-0.2638,-0.2627,-0.2632,-0.2603,-0.2607,-0.2597,-0.2597,-0.2591,-0.2591,-0.2569,-0.2586,-0.2586,-0.2586,-0.2586,0,-0.2792,-0.2777,-0.2764,-0.2753,-0.2736,-0.2727,-0.271,-0.2701,-0.2688,-0.2675,-0.2669,-0.2656,-0.2644,-0.2629,-0.2621,-0.2601,-0.2597,-0.2591,-0.2589,-0.2591,-0.2592,-0.2585,-0.2585,-0.2585,-0.2585,-0.2585,-0.2585,0,-0.2779,-0.277,-0.275,-0.2734,-0.273,-0.2718,-0.2704,-0.2692,-0.2684,-0.2667,-0.2662,-0.2648,-0.2631,-0.2619,-0.2597,-0.2591,-0.257,-0.2568,-0.2575,-0.2574,-0.2565,-0.2566,-0.2537,-0.2533,-0.2552,-0.2552,-0.2552,0,-0.2767,-0.2756,-0.2739,-0.273,-0.2722,-0.2708,-0.2698,-0.2689,-0.2678,-0.2661,-0.2651,-0.2634,-0.2619,-0.2591,-0.2578,-0.2561,-0.2559,-0.255,-0.2556,-0.2559,-0.2558,-0.2559,-0.2557,-0.2548,-0.2548,-0.2548,-0.2548,0,-0.2747,-0.2744,-0.273,-0.2715,-0.2704,-0.2691,-0.2679,-0.2672,-0.266,-0.2649,-0.2632,-0.262,-0.2598,-0.258,-0.2562,-0.2552,-0.2548,-0.2547,-0.2543,-0.2545,-0.255,-0.2547,-0.2572,-0.2547,-0.2547,-0.2547,-0.2547,-0.2547,-0.2734,-0.2724,-0.2711,-0.2696,-0.2686,-0.2674,-0.2663,-0.2654,-0.264,-0.2622,-0.2617,-0.2599,-0.2584,-0.2559,-0.2549,-0.2534,-0.2535,-0.253,-0.2529,-0.2528,-0.2527,-0.2553,-0.253,-0.253,-0.253,-0.253,-0.253,0,-0.2714,-0.2705,-0.2692,-0.2675,-0.2664,-0.2662,-0.2648,-0.2638,-0.2623,-0.261,-0.2596,-0.2576,-0.2559,-0.2546,-0.2528,-0.2519,-0.2516,-0.2514,-0.2515,-0.2512,-0.2528,-0.2532,-0.2517,-0.2517,-0.2517,-0.2517,-0.2517,-0.2517,-0.2702,-0.2684,-0.2679,-0.2657,-0.2648,-0.2631,-0.2623,-0.2613,-0.2602,-0.2581,-0.2567,-0.2559,-0.2546,-0.2527,-0.2511,-0.2508,-0.2501,-0.2499,-0.2495,-0.251,-0.2511,-0.2513,-0.2517,-0.2498,-0.2498,-0.2481,-0.2481,-0.2481]}]]